Regional Weather Roundup
Issued by NWS Jackson, KY

Home | Current Version | Previous Version | Text Only | Print | Product List | Glossary Off
Versions: 1 2 3 4 5 6 7 8 9 10 11 12 13 14 15 16 17 18 19 20 21 22 23 24 25 26 27 28 29 30 31 32 33 34 35 36 37 38 39 40 41 42 43 44 45 46 47 48 49 50

000
ASUS43 KJKL 261310
RWRJKL

EAST KENTUCKY HOURLY WEATHER ROUNDUP
NATIONAL WEATHER SERVICE JACKSON KY
800 AM EST THU FEB 26 2015

NOTE: "FAIR" INDICATES FEW OR NO CLOUDS BELOW 12,000 FEET WITH
NO SIGNIFICANT WEATHER AND/OR OBSTRUCTIONS TO VISIBILITY.

* THESE REPORTS ARE NOT UNDER NWS QUALITY CONTROL AND MAY NOT
  REPORT WEATHER SUCH AS PRECIPITATION AND FOG.

KYZ079-080-083-085-087-088-110-112-115-119-120-261400
...EASTERN KENTUCKY...

CITY           SKY/WX    TMP DP  RH WIND       PRES   REMARKS
JACKSON        CLOUDY    28  22  78 VRB3      29.84R
LONDON         CLOUDY    30  24  78 N6        29.85R WCI  24
SOMERSET*      CLOUDY    30  27  86 NW3       29.91R
MONTICELLO*    CLOUDY    30  28  93 CALM      29.92R
MIDDLESBORO*   CLOUDY    29  29 100 CALM      29.85R FOG
HAZARD APT*    CLOUDY    30  28  93 CALM      29.85R
BLACK MTN*       N/A     23  23 100 N7          N/A  WCI  15
PIKEVILLE APT* CLOUDY    27  25  93 NE5       29.81R WCI  21
BIG SANDY*     CLOUDY    28  25  87 N3        29.84F
MOREHEAD APT*  CLOUDY    25  16  68 VRB3      29.91R
$$

KYZ035-036-041-042-044-050-067-078-099-261400
...CENTRAL KENTUCKY...

CITY           SKY/WX    TMP DP  RH WIND       PRES   REMARKS
MT STERLING*   CLOUDY    27  19  74 NE3       29.91R
DANVILLE*      CLOUDY    27  19  74 N6        29.90R WCI  20
RICHMOND*      CLOUDY    27  19  74 N3        29.89R
LEXINGTON      CLEAR     21  14  74 N8        29.92R WCI  11
FRANKFORT      CLEAR     23  13  65 NE7       29.91R WCI  15
$$

KYZ091>093-OHZ055-061-077-WVZ005-015-034-035-042-261400
...SOUTHERN OHIO/WEST VIRGINIA...

CITY           SKY/WX    TMP DP  RH WIND       PRES   REMARKS
COVINGTON      CLOUDY    20  10  65 N12       29.94R WCI   8
COLUMBUS       CLOUDY    14   5  67 N10       29.95R WCI   1
DAYTON         CLOUDY    14   7  73 NE16      29.98R WCI  -2
WILMINGTON     CLOUDY    14   6  70 N17       29.93R WCI  -3
HUNTINGTON     CLOUDY    28  17  63 N6        29.87R WCI  22
CHARLESTON     FLURRIES  29  27  92 CALM      29.85R
PINEVILLE*     CLOUDY    30  30 100 MISG      29.85R
BECKLEY        CLOUDY    27  23  85 CALM      29.75R
BLUEFIELD      CLOUDY    27  23  85 E3        29.76R
$$

VAZ002-007-008-TNZ017-027-036-066-071-261400
...SOUTHWEST VIRGINIA/EAST TENNESSEE...

CITY           SKY/WX    TMP DP  RH WIND       PRES   REMARKS
WISE*          CLOUDY    27  27 100 W3        29.77R
JONESVILLE*    CLOUDY    28  28 100 CALM      29.83S FOG
ABINGDON*      CLOUDY    28  27  97 N6        29.78R WCI  22
BRISTOL        CLOUDY    31  28  89 NW8       29.82R WCI  23
KNOXVILLE      CLOUDY    29  29 100 CALM      29.84R FOG
OAK RIDGE      CLOUDY    31  29  92 CALM      29.85R FOG
CROSSVILLE     CLOUDY    28  25  88 NW9       29.83R FOG     WCI  19
NASHVILLE      PTCLDY    28  26  92 W5        29.94R FOG     WCI  23
$$

...KEY TO REMARKS...
VSB - VISIBILITY IN MILES
WCI - WIND CHILL INDEX
HX  - HEAT INDEX

$$



USA.gov is the U.S. government's official web portal to all federal, state and local government web resources and services.